| time (UTC) | temp F | wind direction | speed knots | gust knots | rain 1hr in | rain 24hr in | rain mn in | humidity % | barometer mb |
| 20260906161504 | 73 | 139 | 6.1 | 11.3 | 0.00 | 0.00 | 0.00 | 84 | 1020.2 |
| 20260906160010 | 73 | 74 | 3.5 | 13.0 | 0.00 | 0.00 | 0.00 | 86 | 1020.2 |
| 20260906154506 | 72 | 146 | 3.5 | 12.2 | 0.00 | 0.00 | 0.00 | 86 | 1020.2 |
| 20260906153009 | 72 | 74 | 4.3 | 8.7 | 0.00 | 0.00 | 0.00 | 88 | 1020.2 |
| 20260906151512 | 71 | 115 | 3.5 | 10.4 | 0.00 | 0.00 | 0.00 | 89 | 1020.5 |
| 20260906150009 | 70 | 115 | 3.5 | 10.4 | 0.00 | 0.00 | 0.00 | 90 | 1020.5 |
| 20260906144510 | 70 | 71 | 4.3 | 9.6 | 0.00 | 0.00 | 0.00 | 90 | 1020.3 |
| 20260906143006 | 70 | 141 | 5.2 | 15.6 | 0.00 | 0.00 | 0.00 | 91 | 1020.3 |
| 20260906141508 | 70 | 142 | 6.1 | 13.0 | 0.00 | 0.00 | 0.00 | 92 | 1020.2 |
| 20260906140015 | 69 | 68 | 6.1 | 13.0 | 0.00 | 0.00 | 0.00 | 93 | 1020.1 |
| 20260906134510 | 69 | 132 | 3.5 | 8.7 | 0.00 | 0.00 | 0.00 | 94 | 1020.0 |
| 20260906133008 | 68 | 165 | 2.6 | 9.6 | 0.00 | 0.00 | 0.00 | 94 | 1019.8 |
| 20260906131511 | 68 | 108 | 4.3 | 7.8 | 0.00 | 0.00 | 0.00 | 95 | 1019.7 |
| 20260906130019 | 67 | 100 | 1.7 | 8.7 | 0.00 | 0.00 | 0.00 | 94 | 1019.4 |
| 20260906124508 | 67 | 82 | 2.6 | 7.8 | 0.00 | 0.00 | 0.00 | 94 | 1019.5 |
| 20260906123017 | 67 | 86 | 3.5 | 7.8 | 0.00 | 0.00 | 0.00 | 94 | 1019.3 |
| 20260906121522 | 67 | 71 | 1.7 | 6.1 | 0.00 | 0.00 | 0.00 | 94 | 1019.3 |
| 20260906120013 | 66 | 93 | 1.7 | 6.1 | 0.00 | 0.00 | 0.00 | 93 | 1019.2 |
| 20260906114522 | 66 | 116 | 0.9 | 5.2 | 0.00 | 0.00 | 0.00 | 93 | 1019.1 |
| 20260906113036 | 67 | 57 | 1.7 | 4.3 | 0.00 | 0.00 | 0.00 | 93 | 1018.9 |
| 20260906111515 | 67 | 76 | 0.9 | 2.6 | 0.00 | 0.00 | 0.00 | 93 | 1018.9 |
| 20260906110019 | 67 | 146 | 0.9 | 5.2 | 0.00 | 0.00 | 0.00 | 92 | 1018.9 |
| 20260906104527 | 67 | 137 | 1.7 | 3.5 | 0.00 | 0.00 | 0.00 | 92 | 1018.7 |
| 20260906103010 | 67 | 119 | 2.6 | 7.0 | 0.00 | 0.00 | 0.00 | 92 | 1018.8 |
| 20260906101519 | 68 | 137 | 2.6 | 6.1 | 0.00 | 0.00 | 0.00 | 92 | 1018.7 |
| 20260906100019 | 68 | 83 | 1.7 | 5.2 | 0.00 | 0.00 | 0.00 | 91 | 1018.6 |
| 20260906094504 | 68 | 76 | 1.7 | 6.1 | 0.00 | 0.00 | 0.00 | 91 | 1018.3 |
| 20260906093013 | 69 | 137 | 0.9 | 5.2 | 0.00 | 0.00 | 0.00 | 90 | 1018.3 |
| 20260906091524 | 69 | 110 | 1.7 | 6.1 | 0.00 | 0.00 | 0.00 | 90 | 1018.0 |
| 20260906090007 | 69 | 105 | 3.5 | 7.8 | 0.00 | 0.00 | 0.00 | 90 | 1018.0 |
| 20260906084506 | 69 | 90 | 4.3 | 7.8 | 0.00 | 0.00 | 0.00 | 90 | 1018.0 |
| 20260906083016 | 70 | 72 | 2.6 | 8.7 | 0.00 | 0.00 | 0.00 | 89 | 1017.8 |
| 20260906081539 | 70 | 105 | 4.3 | 7.8 | 0.00 | 0.00 | 0.00 | 89 | 1017.7 |
| 20260906080020 | 70 | 98 | 3.5 | 10.4 | 0.00 | 0.00 | 0.00 | 89 | 1017.7 |
| 20260906074517 | 70 | 88 | 2.6 | 7.8 | 0.00 | 0.00 | 0.00 | 89 | 1017.8 |
| 20260906073008 | 70 | 87 | 2.6 | 8.7 | 0.00 | 0.00 | 0.00 | 88 | 1017.9 |
| 20260906071527 | 71 | 74 | 4.3 | 7.8 | 0.00 | 0.00 | 0.00 | 88 | 1018.0 |
| 20260906070024 | 71 | 71 | 1.7 | 6.1 | 0.00 | 0.00 | 0.00 | 88 | 1018.2 |
| 20260906064514 | 71 | 103 | 3.5 | 9.6 | 0.00 | 0.00 | 0.00 | 88 | 1018.3 |
| 20260906063019 | 71 | 86 | 3.5 | 8.7 | 0.00 | 0.00 | 0.00 | 88 | 1018.2 |
| 20260906061518 | 71 | 88 | 1.7 | 7.0 | 0.00 | 0.00 | 0.00 | 88 | 1018.3 |
| 20260906060024 | 71 | 93 | 2.6 | 7.0 | 0.00 | 0.00 | 0.00 | 89 | 1018.1 |
| 20260906054515 | 71 | 72 | 2.6 | 6.1 | 0.00 | 0.00 | 0.00 | 89 | 1018.2 |
| 20260906053032 | 71 | 103 | 1.7 | 7.0 | 0.00 | 0.00 | 0.00 | 89 | 1018.2 |
| 20260906051531 | 71 | 93 | 2.6 | 6.1 | 0.00 | 0.00 | 0.00 | 89 | 1018.2 |
| 20260906050033 | 71 | 70 | 1.7 | 7.0 | 0.00 | 0.00 | 0.00 | 88 | 1018.5 |
| 20260906044532 | 71 | 93 | 2.6 | 7.0 | 0.00 | 0.00 | 0.00 | 88 | 1018.6 |
| 20260906043016 | 71 | 75 | 3.5 | 7.0 | 0.00 | 0.00 | 0.00 | 88 | 1018.6 |
| 20260906041531 | 71 | 78 | 2.6 | 5.2 | 0.00 | 0.00 | 0.00 | 88 | 1018.7 |
| 20260906040031 | 72 | 103 | 0.0 | 3.5 | 0.00 | 0.00 | 0.00 | 87 | 1018.6 |
| 20260906034523 | 72 | 51 | 2.6 | 6.1 | 0.00 | 0.00 | 0.00 | 85 | 1018.5 |
| 20260906033039 | 72 | 70 | 2.6 | 5.2 | 0.00 | 0.00 | 0.00 | 85 | 1018.4 |
| 20260906031529 | 73 | 51 | 0.9 | 6.1 | 0.00 | 0.00 | 0.00 | 85 | 1018.5 |
| 20260906030024 | 73 | 86 | 2.6 | 6.1 | 0.00 | 0.00 | 0.00 | 84 | 1018.5 |
| 20260906024517 | 73 | 93 | 2.6 | 5.2 | 0.00 | 0.00 | 0.00 | 84 | 1018.6 |
| 20260906023026 | 73 | 93 | 1.7 | 7.0 | 0.00 | 0.00 | 0.00 | 84 | 1018.6 |
| 20260906021531 | 74 | 93 | 0.9 | 5.2 | 0.00 | 0.00 | 0.00 | 84 | 1018.3 |
| 20260906020031 | 74 | 79 | 1.7 | 5.2 | 0.00 | 0.00 | 0.00 | 83 | 1017.8 |
| 20260906014528 | 74 | 133 | 1.7 | 4.3 | 0.00 | 0.00 | 0.00 | 82 | 1017.4 |
| 20260906013026 | 75 | 150 | 3.5 | 7.8 | 0.00 | 0.00 | 0.00 | 81 | 1017.2 |
| 20260906011523 | 76 | 135 | 1.7 | 7.0 | 0.00 | 0.00 | 0.00 | 80 | 1016.9 |
| 20260906010033 | 77 | 87 | 2.6 | 7.0 | 0.00 | 0.00 | 0.00 | 78 | 1016.7 |
| 20260906004527 | 78 | 151 | 1.7 | 7.8 | 0.00 | 0.00 | 0.00 | 76 | 1016.6 |
| 20260906003006 | 79 | 84 | 2.6 | 7.8 | 0.00 | 0.00 | 0.00 | 73 | 1016.7 |
| 20260906001506 | 80 | 123 | 3.5 | 8.7 | 0.00 | 0.00 | 0.00 | 70 | 1016.5 |
| 20260906000004 | 81 | 115 | 1.7 | 9.6 | 0.00 | 0.00 | 0.00 | 69 | 1016.4 |
| 20260905234525 | 83 | 80 | 1.7 | 10.4 | 0.00 | 0.00 | 0.00 | 66 | 1016.3 |
| 20260905233006 | 84 | 110 | 2.6 | 11.3 | 0.00 | 0.00 | 0.00 | 65 | 1016.3 |
| 20260905231514 | 85 | 77 | 2.6 | 7.8 | 0.00 | 0.00 | 0.00 | 65 | 1016.0 |
| 20260905230015 | 85 | 110 | 4.3 | 11.3 | 0.00 | 0.00 | 0.00 | 64 | 1015.9 |
| 20260905224508 | 85 | 63 | 7.0 | 13.0 | 0.00 | 0.00 | 0.00 | 62 | 1015.6 |
| 20260905223007 | 85 | 93 | 6.1 | 12.2 | 0.00 | 0.00 | 0.00 | 63 | 1015.4 |
| 20260905221520 | 84 | 121 | 7.8 | 13.0 | 0.00 | 0.00 | 0.00 | 65 | 1015.4 |
| 20260905220026 | 83 | 113 | 6.1 | 11.3 | 0.00 | 0.00 | 0.00 | 68 | 1015.7 |
| 20260905214507 | 83 | 93 | 4.3 | 9.6 | 0.00 | 0.00 | 0.00 | 69 | 1015.9 |
| 20260905213016 | 83 | 80 | 3.5 | 9.6 | 0.00 | 0.00 | 0.00 | 67 | 1016.1 |
| 20260905211524 | 84 | 93 | 5.2 | 12.2 | 0.00 | 0.00 | 0.00 | 64 | 1016.0 |
| 20260905210029 | 87 | 86 | 4.3 | 14.8 | 0.00 | 0.00 | 0.00 | 63 | 1016.1 |
| 20260905204531 | 87 | 93 | 5.2 | 12.2 | 0.00 | 0.00 | 0.00 | 65 | 1016.0 |
| 20260905203036 | 85 | 85 | 5.2 | 15.6 | 0.00 | 0.00 | 0.00 | 68 | 1016.2 |
| 20260905201526 | 85 | 64 | 6.1 | 15.6 | 0.00 | 0.00 | 0.00 | 67 | 1016.5 |
| 20260905200025 | 85 | 90 | 6.1 | 12.2 | 0.00 | 0.00 | 0.00 | 68 | 1017.0 |
| 20260905194537 | 84 | 57 | 7.0 | 11.3 | 0.00 | 0.00 | 0.00 | 69 | 1017.3 |
| 20260905193036 | 83 | 55 | 7.8 | 12.2 | 0.00 | 0.00 | 0.00 | 73 | 1017.3 |
| 20260905191526 | 81 | 72 | 2.6 | 6.1 | 0.00 | 0.00 | 0.00 | 75 | 1017.7 |
| 20260905190031 | 80 | 105 | 1.7 | 3.5 | 0.00 | 0.00 | 0.00 | 77 | 1017.9 |
| 20260905184532 | 80 | 146 | 1.7 | 5.2 | 0.00 | 0.00 | 0.00 | 78 | 1017.9 |
| 20260905183024 | 79 | 128 | 0.9 | 4.3 | 0.00 | 0.00 | 0.00 | 77 | 1018.0 |
| 20260905181524 | 79 | 178 | 1.7 | 7.8 | 0.00 | 0.00 | 0.00 | 79 | 1018.2 |
| 20260905180007 | 78 | 128 | 1.7 | 7.8 | 0.00 | 0.00 | 0.00 | 82 | 1018.4 |
| 20260905174513 | 76 | 116 | 0.9 | 7.0 | 0.00 | 0.00 | 0.00 | 84 | 1018.3 |
| 20260905173013 | 75 | 67 | 0.9 | 7.8 | 0.00 | 0.00 | 0.00 | 84 | 1018.9 |
| 20260905171506 | 75 | 107 | 4.3 | 9.6 | 0.00 | 0.00 | 0.00 | 85 | 1018.9 |
| 20260905170012 | 74 | 93 | 2.6 | 7.8 | 0.00 | 0.00 | 0.00 | 86 | 1019.1 |
| 20260905164518 | 74 | 76 | 3.5 | 7.0 | 0.00 | 0.00 | 0.00 | 87 | 1019.0 |
| 20260905163024 | 73 | 82 | 4.3 | 8.7 | 0.00 | 0.00 | 0.00 | 87 | 1019.2 |